Location: Central Falls
(41.8900°N, 71.3929°W)
Time: 15:26:35
(UTC+00:00)

Vanguard 1 - Pass Details

Date: 07 December 2023
Orbit: 653 x 3826 km, 34.3° (Epoch: 24 February)

Event Time Altitude Azimuth Distance (km) Brightness Sun altitude
Rises 04:37:36 0° 284° (WNW) 7,571 14.6 -70.7°
Reaches altitude 10° 04:43:08 10° 277° (W) 6,768 14.3 -70.6°
Enters shadow 04:46:35 16° 271° (W) 6,305 14.0 -70.6°
Maximum altitude 05:02:31 36° 221° (SW) 4,932 - -70.0°
Drops below altitude 10° 05:19:21 10° 163° (SSE) 5,847 - -68.7°
Sets 05:23:46 0° 155° (SSE) 6,475 - -68.3°
